Waarnemingen

Advertentie
Mijn weer
Liscombe, Groot Brittannië (3710): temperatuur & dauwpunt: 11.02.2019 12:00:00 - 17.02.2019 12:00:00 (GMT)Liscombe, Groot Brittannië (3710): temperatuur -20cm & temperatuur -100cm: 11.02.2019 12:00:00 - 17.02.2019 12:00:00 (GMT)Liscombe, Groot Brittannië (3710): windsnelheid: 11.02.2019 12:00:00 - 17.02.2019 12:00:00 (GMT)Liscombe, Groot Brittannië (3710): windrichting: 11.02.2019 12:00:00 - 17.02.2019 12:00:00 (GMT)Liscombe, Groot Brittannië (3710): luchtdruk: 11.02.2019 12:00:00 - 17.02.2019 12:00:00 (GMT)Liscombe, Groot Brittannië (3710): zicht: 11.02.2019 12:00:00 - 17.02.2019 12:00:00 (GMT)Liscombe, Groot Brittannië (3710): Zonneschijnduur: 11.02.2019 12:00:00 - 17.02.2019 12:00:00 (GMT)Liscombe, Groot Brittannië (3710): neerslag: 11.02.2019 12:00:00 - 17.02.2019 12:00:00 (GMT)
Datum & Tijd tt [°C] td [°C] tt -20cm [°C] tt -100cm [°C] ff [km/u] ff [kn] dd ppp [hPa] vv [km] sd [min] rr [mm]
17.02.2019 12:00:00 8,6 8,0 - - 21 11 ZZW 1012,7 12 0 -
17.02.2019 11:00:00 8,1 7,8 - - 21 11 ZZW 1012,4 7 0 0,2
17.02.2019 10:00:00 7,4 7,0 - - 21 11 Z 1012,0 2,6 0 0,0
17.02.2019 09:00:00 7,0 6,2 7,2 6,7 21 11 Z 1012,0 5 0 0,0
17.02.2019 08:00:00 6,3 5,4 - - 22 12 Z 1012,3 6 0 0,0
17.02.2019 07:00:00 6,3 5,2 - - 21 11 ZZO 1011,7 7 0 0,0
17.02.2019 06:00:00 6,2 5,1 - - 16 9 ZZO 1012,2 6 0 0,0
17.02.2019 05:00:00 6,4 5,3 - - 21 11 ZZO 1012,8 6 0 0,0
17.02.2019 04:00:00 6,4 5,6 - - 18 10 ZO 1013,8 4,6 0 0,0
17.02.2019 03:00:00 6,6 6,1 - - 22 12 Z 1014,7 3,3 0 0,0
17.02.2019 02:00:00 6,8 6,1 - - 21 11 ZZO 1015,3 4,7 0 0,0
17.02.2019 01:00:00 7,6 7,4 - - 16 9 ZZO 1016,2 2,2 0 0,0
17.02.2019 00:00:00 8,0 7,8 - - 18 10 Z 1017,1 0,1 - 0,0
16.02.2019 23:00:00 8,0 7,8 - - 22 12 Z 1017,8 0,7 0 0,0
16.02.2019 22:00:00 8,1 7,7 - - 24 13 ZZO 1018,3 6 0 0,0
16.02.2019 21:00:00 8,1 7,6 - - 22 12 Z 1019,1 5 0 0,0
16.02.2019 20:00:00 8,1 7,4 - - 18 10 Z 1019,5 8 0 0,0
16.02.2019 19:00:00 8,4 7,2 - - 22 12 Z 1019,5 14 0 0,0
16.02.2019 18:00:00 9,0 7,9 - - 26 14 ZZW 1019,4 15 0 0,0
16.02.2019 17:00:00 9,6 8,9 - - 28 15 Z 1019,1 12 0 0,0
16.02.2019 16:00:00 10,2 8,7 - - 24 13 Z 1019,2 23 0 0,0
16.02.2019 15:00:00 10,5 8,7 - - 24 13 ZZW 1019,9 29 0 0,0
16.02.2019 14:00:00 10,6 8,8 - - 28 15 ZZW 1020,6 30 0 0,0
16.02.2019 13:00:00 10,6 8,9 - - 28 15 ZZW 1021,0 30 0 0,0
16.02.2019 12:00:00 10,0 8,6 - - 24 13 ZZW 1021,7 29 0 0,0
16.02.2019 11:00:00 9,4 8,4 - - 24 13 ZZW 1021,6 21 0 0,0
16.02.2019 10:00:00 8,8 7,9 - - 22 12 ZZW 1021,6 20 0 0,0
16.02.2019 09:00:00 7,8 7,2 7,0 6,7 18 10 ZW 1021,9 18 0 0,2
16.02.2019 08:00:00 7,5 6,7 - - 21 11 ZW 1021,8 24 0 0,0
16.02.2019 07:00:00 8,1 7,9 - - 13 7 ZW 1021,2 5 0 0,0
16.02.2019 06:00:00 8,3 8,2 - - 21 11 ZW 1021,4 9 0 0,0
16.02.2019 05:00:00 8,9 8,7 - - 18 10 ZW 1021,3 2,0 0 0,2
16.02.2019 04:00:00 8,9 8,8 - - 16 9 ZW 1021,3 2,4 0 0,0
16.02.2019 03:00:00 8,3 8,1 - - 15 8 ZZW 1021,6 - 0 0,0
16.02.2019 02:00:00 8,3 8,1 - - 15 8 ZZW 1021,8 - 0 0,2
16.02.2019 01:00:00 8,1 8,0 - - 15 8 ZW 1022,1 0,3 0 0,0
16.02.2019 00:00:00 7,7 7,6 - - 16 9 ZW 1022,4 0,1 - 0,0
15.02.2019 23:00:00 6,4 6,2 - - 11 6 ZZW 1022,9 0,1 0 0,0
15.02.2019 22:00:00 6,0 5,8 - - 11 6 ZZW 1023,5 0,5 0 0,0
15.02.2019 21:00:00 6,2 6,0 - - 13 7 Z 1023,1 - 0 0,0
15.02.2019 20:00:00 6,5 6,2 - - 18 10 ZZW 1023,7 1,0 0 0,0
15.02.2019 19:00:00 6,8 6,4 - - 11 6 Z 1023,6 0,2 0 0,0
15.02.2019 18:00:00 7,8 6,4 - - 11 6 Z 1023,2 6 0 0,0
15.02.2019 17:00:00 9,8 6,5 - - 16 9 Z 1022,8 15 60 0,0
15.02.2019 16:00:00 11,7 5,8 - - 21 11 Z 1022,7 26 60 0,0
15.02.2019 15:00:00 12,6 4,4 - - 21 11 Z 1023,0 30 60 0,0
15.02.2019 14:00:00 11,9 4,6 - - 18 10 Z 1023,5 29 60 0,0
15.02.2019 13:00:00 11,9 6,2 - - 16 9 Z 1024,5 22 60 0,0
15.02.2019 12:00:00 10,1 7,9 - - 18 10 Z 1025,4 12 60 0,0
15.02.2019 11:00:00 7,8 7,7 - - 16 9 Z 1026,0 2,5 30 0,0
15.02.2019 10:00:00 6,6 6,5 - - 11 6 Z 1026,3 - 0 0,0
15.02.2019 09:00:00 5,8 5,7 6,5 6,5 15 8 Z 1026,7 - 0 0,0
15.02.2019 08:00:00 5,5 5,4 - - 13 7 ZZO 1026,6 - 0 0,0
15.02.2019 07:00:00 5,4 5,3 - - 15 8 Z 1026,4 - 0 0,0
15.02.2019 06:00:00 5,4 5,2 - - 15 8 Z 1026,5 - 0 0,0
15.02.2019 05:00:00 5,0 4,9 - - 16 9 Z 1026,5 - 0 0,0
15.02.2019 04:00:00 5,2 5,0 - - 13 7 Z 1026,7 - 0 0,0
15.02.2019 03:00:00 5,0 4,7 - - 13 7 Z 1027,1 - 0 0,2
15.02.2019 02:00:00 4,1 3,8 - - 11 6 Z 1027,6 1,0 0 0,0
15.02.2019 01:00:00 3,8 3,1 - - 13 7 ZZW 1028,1 2,7 0 0,0
15.02.2019 00:00:00 4,1 2,6 - - 13 7 Z 1028,0 6 - 0,0
14.02.2019 23:00:00 4,3 2,9 - - 15 8 ZZO 1028,1 10 0 0,0
14.02.2019 22:00:00 3,6 2,4 - - 11 6 ZZO 1028,6 10 0 0,0
14.02.2019 21:00:00 3,7 2,5 - - 11 6 ZZO 1028,7 11 0 0,0
14.02.2019 20:00:00 3,1 1,7 - - 8 4 ZO 1029,1 13 0 0,0
14.02.2019 19:00:00 3,9 1,9 - - 9 5 OZO 1028,9 17 0 0,0
14.02.2019 18:00:00 5,3 2,1 - - 8 4 ZO 1028,7 18 18 0,0
14.02.2019 17:00:00 7,4 1,4 - - 9 5 ZZO 1028,5 22 60 0,0
14.02.2019 16:00:00 9,5 2,6 - - 9 5 ZO 1028,4 20 60 0,0
14.02.2019 15:00:00 10,0 3,2 - - 15 8 ZZO 1028,7 18 60 0,0
14.02.2019 14:00:00 9,8 3,8 - - 16 9 ZZO 1029,2 26 60 0,0
14.02.2019 13:00:00 9,7 5,5 - - 15 8 ZO 1029,8 18 60 0,0
14.02.2019 12:00:00 8,8 5,8 - - 13 7 ZO 1030,6 9 60 0,0
14.02.2019 11:00:00 7,1 5,6 - - 11 6 Z 1031,1 6 54 0,0
14.02.2019 10:00:00 5,8 5,6 - - 11 6 ZZO 1031,2 1,7 0 0,0
14.02.2019 09:00:00 5,1 4,9 6,2 6,4 9 5 ZZO 1031,5 0,1 0 0,0
14.02.2019 08:00:00 4,8 4,6 - - 9 5 ZZO 1031,5 - 0 0,0
14.02.2019 07:00:00 4,8 4,6 - - 9 5 ZZO 1031,2 0,1 0 0,0
14.02.2019 06:00:00 4,9 4,7 - - 11 6 ZO 1030,9 - 0 0,0
14.02.2019 05:00:00 4,9 4,7 - - 9 5 ZZO 1030,9 0,2 0 0,0
14.02.2019 04:00:00 5,2 5,0 - - 13 7 Z 1031,0 - 0 0,0
14.02.2019 03:00:00 5,2 5,0 - - 15 8 Z 1031,6 1,9 0 0,0
14.02.2019 02:00:00 4,9 4,7 - - 15 8 Z 1031,5 0,9 0 0,0
14.02.2019 01:00:00 5,1 4,8 - - 15 8 Z 1031,6 1,4 0 0,0
14.02.2019 00:00:00 5,1 4,9 - - 16 9 Z 1031,7 1,4 - 0,0
13.02.2019 23:00:00 5,0 4,7 - - 15 8 Z 1031,8 1,2 0 0,0
13.02.2019 22:00:00 4,8 4,6 - - 15 8 Z 1031,7 0,4 0 0,0
13.02.2019 21:00:00 4,4 4,0 - - 11 6 Z 1031,7 1,0 0 0,0
13.02.2019 20:00:00 4,7 4,1 - - 9 5 Z 1031,5 7 0 0,0
13.02.2019 19:00:00 5,2 4,5 - - 11 6 Z 1031,2 3,9 0 0,0
13.02.2019 18:00:00 6,5 4,6 - - 13 7 Z 1030,8 15 12 0,0
13.02.2019 17:00:00 8,3 4,6 - - 15 8 Z 1030,5 25 60 0,0
13.02.2019 16:00:00 10,1 3,4 - - 21 11 Z 1030,0 35 60 0,0
13.02.2019 15:00:00 10,4 4,0 - - 21 11 Z 1030,3 35 60 0,0
13.02.2019 14:00:00 10,1 4,2 - - 21 11 Z 1030,9 40 54 0,0
13.02.2019 13:00:00 9,0 4,6 - - 21 11 Z 1031,0 30 54 0,0
13.02.2019 12:00:00 7,7 5,0 - - 18 10 Z 1031,8 25 42 0,0
13.02.2019 11:00:00 6,5 5,2 - - 18 10 Z 1032,0 19 0 0,0
13.02.2019 10:00:00 5,9 5,1 - - 15 8 Z 1031,7 14 0 0,0
13.02.2019 09:00:00 5,3 5,0 5,9 6,4 16 9 Z 1031,9 8 0 0,0
13.02.2019 08:00:00 5,1 4,8 - - 13 7 Z 1032,1 1,7 0 0,0
13.02.2019 07:00:00 4,8 4,3 - - 11 6 Z 1031,9 12 0 0,0
13.02.2019 06:00:00 5,4 4,7 - - 15 8 Z 1032,0 12 0 0,0
13.02.2019 05:00:00 5,8 4,2 - - 15 8 Z 1032,1 30 0 0,0
13.02.2019 04:00:00 6,1 4,2 - - 16 9 Z 1032,3 35 0 0,0
13.02.2019 03:00:00 6,2 4,7 - - 15 8 ZZW 1032,7 30 0 0,0
13.02.2019 02:00:00 6,4 5,0 - - 16 9 ZZW 1033,1 21 0 0,0
13.02.2019 01:00:00 6,5 5,7 - - 13 7 ZZW 1033,1 14 0 0,0
13.02.2019 00:00:00 6,6 5,6 - - 13 7 ZZW 1033,2 13 - 0,0
12.02.2019 23:00:00 6,6 5,7 - - 9 5 ZZW 1033,5 16 0 0,0
12.02.2019 22:00:00 6,6 5,9 - - 11 6 ZZW 1033,5 11 0 0,0
12.02.2019 21:00:00 6,6 6,0 - - 8 4 ZZW 1033,5 13 0 0,0
12.02.2019 20:00:00 6,9 6,2 - - 13 7 ZZW 1033,5 10 0 0,0
12.02.2019 19:00:00 6,9 6,1 - - 9 5 ZZW 1033,4 17 0 0,0
12.02.2019 18:00:00 7,2 6,1 - - 11 6 ZZW 1033,2 22 0 0,0
12.02.2019 17:00:00 7,1 6,3 - - 11 6 ZZW 1033,0 14 0 0,0
12.02.2019 16:00:00 7,5 6,2 - - 15 8 ZW 1032,8 15 0 0,0
12.02.2019 15:00:00 7,8 5,6 - - 15 8 ZW 1032,8 35 0 0,0
12.02.2019 14:00:00 8,2 6,0 - - 15 8 ZZW 1032,7 30 0 0,0
12.02.2019 13:00:00 7,6 6,0 - - 15 8 ZW 1033,1 26 0 0,0
12.02.2019 12:00:00 6,8 6,0 - - 15 8 ZW 1033,4 20 0 0,0
12.02.2019 11:00:00 6,1 5,5 - - 16 9 ZW 1033,2 23 0 0,0
12.02.2019 10:00:00 5,2 5,1 - - 13 7 ZW 1033,1 15 0 0,0
12.02.2019 09:00:00 4,7 4,5 5,7 6,4 15 8 ZW 1032,8 2,7 0 0,0
12.02.2019 08:00:00 4,1 4,0 - - 15 8 WZW 1033,0 6 0 0,0
12.02.2019 07:00:00 3,8 3,6 - - 13 7 ZW 1032,7 0,1 0 0,0
12.02.2019 06:00:00 3,0 2,7 - - 5 3 WZW 1032,9 0,1 0 0,0
12.02.2019 05:00:00 2,9 2,6 - - 5 3 ZW 1032,9 16 0 0,0
12.02.2019 04:00:00 3,2 3,0 - - 8 4 ZW 1032,8 16 0 0,2
12.02.2019 03:00:00 2,6 2,4 - - 8 4 ZW 1033,1 15 0 0,0
12.02.2019 02:00:00 2,2 2,0 - - 5 3 W 1033,5 6 0 0,0
12.02.2019 01:00:00 2,2 2,0 - - 2 1 W 1033,8 4,9 0 0,0
12.02.2019 00:00:00 1,4 1,1 - - 5 3 W 1033,7 1,3 - 0,0
11.02.2019 23:00:00 2,6 2,4 - - 2 1 W 1033,2 0,6 0 0,0
11.02.2019 22:00:00 1,8 1,4 - - 4 2 WNW 1032,9 9 0 0,0
11.02.2019 21:00:00 2,1 1,7 - - 4 2 N 1032,6 8 0 0,0
11.02.2019 20:00:00 2,8 2,4 - - 4 2 NNW 1032,4 6 0 0,0
11.02.2019 19:00:00 2,3 1,5 - - 5 3 WNW 1032,1 19 0 0,0
11.02.2019 18:00:00 3,3 1,4 - - 5 3 NW 1031,4 35 0 0,0
11.02.2019 17:00:00 5,7 2,0 - - 9 5 WNW 1030,7 50 0 0,0
11.02.2019 16:00:00 7,3 2,2 - - 8 4 W 1029,9 60 36 0,0
11.02.2019 15:00:00 9,7 3,3 - - 11 6 WNW 1028,4 60 54 0,0
11.02.2019 14:00:00 8,6 3,2 - - 13 7 NW 1028,3 50 24 0,0
11.02.2019 13:00:00 7,2 3,8 - - 13 7 NNW 1028,2 50 0 0,0
11.02.2019 12:00:00 7,2 3,6 - - 11 6 NW 1027,8 60 0 0,0

tt = temperatuur
td = dauwpunt
tt -20cm = temperatuur -20cm
tt -100cm = temperatuur -100cm
ff = windsnelheid
dd = windrichting
ppp = luchtdruk
vv = zicht
sd = Zonneschijnduur
rr = neerslag

Weerstations in de omgeving